Hourly Data Report for February 26, 2017

All times are specified in Local Standard Time (LST). Add 1 hour to adjust for Daylight Saving Time where and when it is observed.

TORONTO CITY
ONTARIO

43°40'00.000" N
79°24'00.000" W
112.50 m
6158355
71508
XTO

Download Data

Hourly Data (February 2017)
Hourly Data Report for February 26, 2017
TIME Temp Definition
°C
Dew Point Definition
°C
Rel Hum Definition
%
Wind Dir Definition
10's deg

Wind Spd Definition
km/h
Visibility Definition
km
Stn Press Definition
kPa
Hmdx Definition


Wind Chill Definition


Weather Definition


00:00 -0.9 -6.9 64 LegendMM LegendMM   99.58     LegendNANA
01:00 -1.5 -6.3 70 LegendMM LegendMM   99.66     LegendNANA
02:00 -2.1 -9.9 55 LegendMM LegendMM   99.71     LegendNANA
03:00 -2.5 -10.0 56 LegendMM LegendMM   99.78     LegendNANA
04:00 -2.7 -9.7 58 LegendMM LegendMM   99.84     LegendNANA
05:00 -2.6 -9.5 59 LegendMM LegendMM   99.93     LegendNANA
06:00 -2.0 -9.5 56 LegendMM LegendMM   100.02     LegendNANA
07:00 -2.0 -8.0 63 LegendMM LegendMM   100.10     LegendNANA
08:00 -1.8 -6.7 69 LegendMM LegendMM   100.19     LegendNANA
09:00 -1.6 -5.5 75 LegendMM LegendMM   100.27     LegendNANA
10:00 -0.8 -8.4 56 LegendMM LegendMM   100.32     LegendNANA
11:00 -0.2 -9.6 49 LegendMM LegendMM   100.34     LegendNANA
12:00 0.5 -9.3 48 LegendMM LegendMM   100.38     LegendNANA
13:00 0.6 -8.9 49 LegendMM LegendMM   100.35     LegendNANA
14:00 1.7 -8.1 48 LegendMM LegendMM   100.33     LegendNANA
15:00 1.7 -8.9 45 LegendMM LegendMM   100.29     LegendNANA
16:00 2.0 -8.0 47 LegendMM LegendMM   100.24     LegendNANA
17:00 1.9 -7.1 51 LegendMM LegendMM   100.25     LegendNANA
18:00 1.5 -6.6 55 LegendMM LegendMM   100.26     LegendNANA
19:00 1.3 -7.3 53 LegendMM LegendMM   100.27     LegendNANA
20:00 1.6 -7.1 52 LegendMM LegendMM   100.29     LegendNANA
21:00 2.1 -5.3 58 LegendMM LegendMM   100.30     LegendNANA
22:00 2.4 -3.6 65 LegendMM LegendMM   100.29     LegendNANA
23:00 2.5 -2.9 67 LegendMM LegendMM   100.27     LegendNANA

Notes on Data Quality.

Legend

  • E = Estimated
  • M = Missing
  • NA = Not Available
Date modified: